DW6368 Weather Reports


Display with metric or nautical units.
time (UTC)temp
F
wind
direction
speed
MPH
gust
MPH
rain 1hr
in
rain 24hr
in
rain mn
in
humidity
%
barometer
mb
20200226014523 75 296 1.0 0.0 0.00 0.00 0.00 41 1020.4
20200226014033 76 319 1.0 0.0 0.00 0.00 0.00 41 1020.4
20200226013526 77 318 2.0 0.0 0.00 0.00 0.00 40 1020.3
20200226013020 77 298 2.0 0.0 0.00 0.00 0.00 40 1020.2
20200226012530 77 319 3.0 0.0 0.00 0.00 0.00 40 1020.1
20200226012027 78 303 3.0 0.0 0.00 0.00 0.00 39 1020.0
20200226011517 79 286 3.0 0.0 0.00 0.00 0.00 38 1020.0
20200226011027 79 273 3.0 0.0 0.00 0.00 0.00 36 1019.9
20200226010519 80 286 3.0 0.0 0.00 0.00 0.00 32 1019.8
20200226010053 80 255 2.0 0.0 0.00 0.00 0.00 22 1019.7
20200226005527 80 251 3.0 0.0 0.00 0.00 0.00 22 1019.7
20200226005020 80 229 3.0 0.0 0.00 0.00 0.00 22 1019.6
20200226004533 80 252 3.0 0.0 0.00 0.00 0.00 24 1019.6
20200226004026 80 261 3.0 0.0 0.00 0.00 0.00 25 1019.7
20200226003523 80 241 3.0 0.0 0.00 0.00 0.00 25 1019.7
20200226003016 80 227 3.0 0.0 0.00 0.00 0.00 25 1019.7
20200226002529 80 200 4.0 0.0 0.00 0.00 0.00 26 1019.6
20200226002026 80 205 4.0 0.0 0.00 0.00 0.00 25 1019.6
20200226001520 80 222 5.0 0.0 0.00 0.00 0.00 26 1019.6
20200226001032 80 242 5.0 0.0 0.00 0.00 0.00 25 1019.6
20200226000527 81 237 4.0 0.0 0.00 0.00 0.00 26 1019.6
20200226000045 81 179 4.0 0.0 0.00 0.00 0.00 26 1019.5
20200225235517 81 194 4.0 0.0 0.00 0.00 0.00 26 1019.6
20200225235030 81 242 4.0 0.0 0.00 0.00 0.00 26 1019.5
20200225234524 81 221 4.0 0.0 0.00 0.00 0.00 26 1019.6
20200225234031 82 184 4.0 0.0 0.00 0.00 0.00 26 1019.6
20200225233527 82 193 3.0 0.0 0.00 0.00 0.00 28 1019.6
20200225233021 81 224 4.0 0.0 0.00 0.00 0.00 29 1019.6
20200225232534 81 252 4.0 0.0 0.00 0.00 0.00 28 1019.6
20200225232025 81 234 4.0 0.0 0.00 0.00 0.00 29 1019.6
20200225231516 80 244 4.0 0.0 0.00 0.00 0.00 30 1019.6
20200225231030 80 232 4.0 0.0 0.00 0.00 0.00 29 1019.6
20200225230526 80 200 4.0 0.0 0.00 0.00 0.00 31 1019.6
20200225230041 79 202 5.0 0.0 0.00 0.00 0.00 32 1019.7
20200225225517 79 246 5.0 0.0 0.00 0.00 0.00 34 1019.6
20200225225028 79 222 5.0 0.0 0.00 0.00 0.00 34 1019.6
20200225224518 79 207 5.0 0.0 0.00 0.00 0.00 35 1019.7
20200225224032 79 216 5.0 0.0 0.00 0.00 0.00 37 1019.7
20200225223532 79 190 5.0 0.0 0.00 0.00 0.00 38 1019.7
20200225223023 79 218 4.0 0.0 0.00 0.00 0.00 37 1019.8
20200225222516 79 240 5.0 0.0 0.00 0.00 0.00 37 1019.8
20200225222031 78 194 5.0 0.0 0.00 0.00 0.00 39 1019.8
20200225221526 78 248 5.0 0.0 0.00 0.00 0.00 41 1019.9
20200225221022 77 208 5.0 0.0 0.00 0.00 0.00 41 1020.0
20200225220535 77 226 5.0 0.0 0.00 0.00 0.00 43 1020.0
20200225220053 77 210 4.0 0.0 0.00 0.00 0.00 44 1020.0
20200225215523 77 250 4.0 0.0 0.00 0.00 0.00 46 1020.1
20200225215017 78 226 4.0 0.0 0.00 0.00 0.00 49 1020.1
20200225214531 77 188 4.0 0.0 0.00 0.00 0.00 45 1020.1
20200225214022 76 212 4.0 0.0 0.00 0.00 0.00 46 1020.2
20200225213517 76 222 4.0 0.0 0.00 0.00 0.00 48 1020.2
20200225213033 76 182 4.0 0.0 0.00 0.00 0.00 49 1020.3
20200225212527 76 188 4.0 0.0 0.00 0.00 0.00 52 1020.3
20200225212018 76 223 4.0 0.0 0.00 0.00 0.00 53 1020.3
20200225211023 75 207 3.0 6.0 0.00 0.01 0.01 54 1020.5
20200225210531 74 180 3.0 6.0 0.00 0.01 0.01 57 1020.6
20200225210102 74 232 4.0 9.0 0.00 0.01 0.01 57 1020.7
20200225205527 74 244 5.0 9.0 0.00 0.01 0.01 56 1020.8
20200225205034 73 207 5.0 9.0 0.00 0.01 0.01 58 1020.9
20200225204521 74 192 5.0 10.0 0.00 0.01 0.01 58 1020.9
20200225204021 74 194 4.0 10.0 0.00 0.01 0.01 60 1021.0
20200225203530 75 231 5.0 9.0 0.00 0.01 0.01 60 1021.0
20200225203033 75 214 6.0 7.0 0.00 0.01 0.01 61 1021.1
20200225202535 75 194 4.0 6.0 0.00 0.01 0.01 61 1021.1
20200225202038 75 240 4.0 6.0 0.00 0.01 0.01 62 1021.1
20200225201529 75 201 2.0 6.0 0.00 0.01 0.01 60 1021.2
20200225201031 75 211 3.0 6.0 0.00 0.01 0.01 57 1021.1
20200225200534 74 136 2.0 6.0 0.00 0.01 0.01 63 1021.2
20200225200044 74 182 1.0 5.0 0.00 0.01 0.01 62 1021.2
20200225195529 73 164 3.0 6.0 0.00 0.01 0.01 61 1021.3
20200225195036 73 178 4.0 6.0 0.00 0.01 0.01 61 1021.4
20200225194519 73 222 3.0 5.0 0.00 0.01 0.01 63 1021.5
20200225194022 73 205 4.0 5.0 0.00 0.01 0.01 64 1021.5
20200225193530 73 172 3.0 6.0 0.00 0.01 0.01 64 1021.7
20200225193037 73 196 3.0 10.0 0.00 0.01 0.01 62 1021.7
20200225192519 74 189 3.0 9.0 0.00 0.01 0.01 61 1021.6
20200225192028 74 222 3.0 9.0 0.00 0.01 0.01 60 1021.7
20200225191527 76 193 4.0 7.0 0.00 0.01 0.01 57 1021.7
20200225191020 76 165 3.0 5.0 0.00 0.01 0.01 53 1021.9
20200225190522 75 124 2.0 3.0 0.00 0.01 0.01 40 1021.9
20200225190046 75 355 0.0 3.0 0.00 0.01 0.01 42 1021.9
20200225185525 74 46 2.0 7.0 0.00 0.01 0.01 44 1021.8
20200225185027 74 294 4.0 7.0 0.00 0.01 0.01 44 1021.9
20200225184531 73 261 3.0 4.0 0.00 0.01 0.01 46 1021.9
20200225184025 73 348 3.0 4.0 0.00 0.01 0.01 48 1022.0
20200225183531 72 51 1.0 3.0 0.00 0.01 0.01 51 1021.9
20200225183019 71 306 2.0 6.0 0.00 0.01 0.01 53 1021.9
20200225182522 70 303 3.0 6.0 0.00 0.01 0.01 55 1021.8
20200225182028 70 305 3.0 6.0 0.00 0.01 0.01 55 1021.8
20200225181523 69 292 4.0 6.0 0.00 0.01 0.01 58 1021.7
20200225181030 68 321 3.0 6.0 0.00 0.01 0.01 62 1021.7
20200225180519 67 296 3.0 4.0 0.00 0.01 0.01 64 1021.6
20200225180050 67 302 2.0 6.0 0.00 0.01 0.01 66 1021.6
20200225175530 66 307 3.0 6.0 0.00 0.01 0.01 71 1021.6
20200225175033 65 298 1.0 5.0 0.00 0.01 0.01 76 1021.5
20200225174534 64 273 2.0 4.0 0.00 0.01 0.01 79 1021.5
20200225174037 63 273 3.0 4.0 0.00 0.01 0.01 82 1021.6
20200225173520 62 310 2.0 3.0 0.00 0.01 0.01 87 1021.6
20200225173030 61 295 2.0 3.0 0.00 0.01 0.01 88 1021.5
20200225172519 60 207 1.0 3.0 0.00 0.01 0.01 90 1021.6
20200225172022 59 228 2.0 3.0 0.00 0.01 0.01 91 1021.6
20200225171533 59 275 2.0 3.0 0.00 0.01 0.01 92 1021.7
20200225171036 58 275 2.0 3.0 0.00 0.01 0.01 92 1021.5
20200225170522 58 281 1.0 2.0 0.00 0.01 0.01 93 1021.6
20200225170048 57 292 1.0 2.0 0.00 0.01 0.01 93 1021.5
20200225165524 57 292 1.0 2.0 0.00 0.01 0.01 93 1021.6
20200225165027 57 269 0.0 0.0 0.00 0.01 0.01 93 1021.7
20200225164532 56 269 0.0 0.0 0.00 0.01 0.01 93 1021.5
20200225164038 56 269 0.0 1.0 0.00 0.01 0.01 93 1021.6
20200225163522 55 269 0.0 2.0 0.00 0.01 0.01 93 1021.5
20200225163026 55 271 1.0 2.0 0.00 0.01 0.01 93 1021.5
20200225162533 55 299 0.0 0.0 0.00 0.01 0.01 93 1021.6
20200225162034 54 300 0.0 0.0 0.00 0.01 0.01 93 1021.6
20200225161522 54 312 0.0 0.0 0.00 0.01 0.01 93 1021.5
20200225161028 53 313 0.0 0.0 0.00 0.01 0.01 93 1021.5
20200225160531 53 315 0.0 0.0 0.00 0.01 0.01 93 1021.6
20200225160100 53 175 0.0 0.0 0.00 0.01 0.01 93 1021.6
20200225155518 52 115 0.0 0.0 0.00 0.01 0.01 93 1021.6
20200225155030 52 89 0.0 0.0 0.00 0.01 0.01 93 1021.5
20200225154533 52 89 0.0 0.0 0.01 0.01 0.01 93 1021.6
20200225154037 51 89 0.0 0.0 0.01 0.01 0.01 93 1021.5
20200225153524 50 88 0.0 0.0 0.01 0.01 0.01 93 1021.3
20200225153031 50 89 0.0 3.0 0.01 0.01 0.01 93 1021.3
20200225152534 50 89 0.0 3.0 0.01 0.01 0.01 93 1021.2
20200225152022 49 328 0.0 2.0 0.01 0.01 0.01 93 1021.1
20200225151526 48 328 0.0 2.0 0.01 0.01 0.01 93 1021.1
20200225151031 48 328 0.0 1.0 0.01 0.01 0.01 93 1021.0
20200225150536 47 328 0.0 1.0 0.01 0.01 0.01 93 1020.9
20200225150044 47 328 0.0 0.0 0.01 0.01 0.01 93 1020.8
20200225145522 47 328 0.0 0.0 0.01 0.01 0.01 93 1020.8
20200225145024 46 328 0.0 0.0 0.01 0.01 0.01 92 1020.8
20200225144528 46 328 0.0 1.0 0.00 0.00 0.00 92 1020.7
20200225144033 46 328 1.0 2.0 0.00 0.00 0.00 92 1020.6
20200225143520 46 328 1.0 2.0 0.00 0.00 0.00 92 1020.3
20200225143027 47 328 0.0 1.0 0.00 0.00 0.00 92 1020.3
20200225142529 47 328 0.0 1.0 0.00 0.00 0.00 92 1020.4
20200225142031 47 328 0.0 0.0 0.00 0.00 0.00 92 1020.4
20200225141518 47 328 0.0 0.0 0.00 0.00 0.00 92 1020.6
20200225141021 47 328 0.0 0.0 0.00 0.00 0.00 92 1020.6
20200225140527 47 328 0.0 1.0 0.00 0.00 0.00 92 1020.4
20200225140054 47 328 0.0 1.0 0.00 0.00 0.00 92 1020.4
20200225135532 47 328 0.0 2.0 0.00 0.00 0.00 92 1020.5
20200225135034 47 328 0.0 2.0 0.00 0.00 0.00 92 1020.3
20200225134537 48 328 0.0 2.0 0.00 0.00 0.00 92 1020.2
20200225134021 48 328 0.0 2.0 0.00 0.00 0.00 92 1020.3
20200225133528 48 328 0.0 2.0 0.00 0.00 0.00 92 1020.3
20200225133030 47 328 0.0 3.0 0.00 0.00 0.00 92 1020.2
20200225132533 47 304 1.0 3.0 0.00 0.00 0.00 92 1020.3
20200225132035 47 45 0.0 1.0 0.00 0.00 0.00 92 1020.2
20200225131519 48 45 0.0 0.0 0.00 0.00 0.00 92 1020.1
20200225131031 48 45 0.0 0.0 0.00 0.00 0.00 92 1020.0
20200225130521 48 45 0.0 0.0 0.00 0.00 0.00 92 1020.1
20200225130047 48 45 0.0 0.0 0.00 0.00 0.00 92 1020.1
20200225125527 48 45 0.0 0.0 0.00 0.00 0.00 92 1019.9
20200225125036 48 45 0.0 0.0 0.00 0.00 0.00 92 1019.9
20200225124519 48 45 0.0 0.0 0.00 0.00 0.00 92 1019.9
20200225124026 48 45 0.0 0.0 0.00 0.00 0.00 92 1019.8
20200225123529 48 45 0.0 0.0 0.00 0.00 0.00 92 1019.9
20200225123016 48 45 0.0 0.0 0.00 0.00 0.00 92 1019.9
20200225122521 49 45 0.0 0.0 0.00 0.00 0.00 92 1019.8
20200225122027 49 45 0.0 0.0 0.00 0.00 0.00 92 1019.7
20200225121535 49 45 0.0 0.0 0.00 0.00 0.00 92 1019.7
20200225121022 49 45 0.0 0.0 0.00 0.00 0.00 92 1019.7
20200225120526 49 45 0.0 0.0 0.00 0.00 0.00 92 1019.7
20200225120048 49 45 0.0 0.0 0.00 0.00 0.00 92 1019.8
20200225115528 49 45 0.0 0.0 0.00 0.00 0.00 92 1019.8
20200225115034 49 45 0.0 0.0 0.00 0.00 0.00 92 1019.7
20200225114525 49 45 0.0 0.0 0.00 0.00 0.00 92 1019.7
20200225114034 49 45 0.0 0.0 0.00 0.00 0.00 92 1019.5
20200225113537 49 45 0.0 0.0 0.00 0.00 0.00 92 1019.6
20200225113024 49 45 0.0 0.0 0.00 0.00 0.00 92 1019.4
20200225112526 49 45 0.0 0.0 0.00 0.00 0.00 92 1019.3
20200225112029 49 45 0.0 0.0 0.00 0.00 0.00 92 1019.4
20200225111537 49 45 0.0 0.0 0.00 0.00 0.00 92 1019.4
20200225111021 49 45 0.0 0.0 0.00 0.00 0.00 92 1019.4
20200225110526 49 45 0.0 0.0 0.00 0.00 0.00 92 1019.5
20200225110052 50 45 0.0 0.0 0.00 0.00 0.00 92 1019.5
20200225105530 50 45 0.0 0.0 0.00 0.00 0.00 92 1019.6
20200225105033 50 45 0.0 0.0 0.00 0.00 0.00 92 1019.6
20200225104537 50 45 0.0 0.0 0.00 0.00 0.00 92 1019.7
20200225104027 50 45 0.0 0.0 0.00 0.00 0.00 92 1019.6
20200225103528 50 46 0.0 0.0 0.00 0.00 0.00 92 1019.6
20200225103036 50 45 0.0 0.0 0.00 0.00 0.00 92 1019.7
20200225102538 50 45 0.0 0.0 0.00 0.00 0.00 92 1019.6
20200225102024 50 45 0.0 0.0 0.00 0.00 0.00 92 1019.6
20200225101527 50 46 0.0 0.0 0.00 0.00 0.00 92 1019.6
20200225101032 51 46 0.0 0.0 0.00 0.00 0.00 92 1019.5
20200225100535 51 45 0.0 0.0 0.00 0.00 0.00 92 1019.5
20200225100047 51 45 0.0 0.0 0.00 0.00 0.00 92 1019.5
20200225095533 51 46 0.0 0.0 0.00 0.00 0.00 92 1019.5
20200225095025 51 45 0.0 0.0 0.00 0.00 0.00 92 1019.4
20200225094527 51 45 0.0 0.0 0.00 0.00 0.00 92 1019.4
20200225094030 51 45 0.0 0.0 0.00 0.00 0.00 92 1019.4
20200225093533 51 46 0.0 0.0 0.00 0.00 0.00 92 1019.5
20200225093018 51 46 0.0 0.0 0.00 0.00 0.00 92 1019.7
20200225092526 51 46 0.0 0.0 0.00 0.00 0.00 92 1019.7
20200225092030 51 46 0.0 0.0 0.00 0.00 0.00 92 1019.7
20200225091537 51 46 0.0 0.0 0.00 0.00 0.00 92 1019.7
20200225091022 51 46 0.0 0.0 0.00 0.00 0.00 91 1019.6
20200225090524 51 46 0.0 0.0 0.00 0.00 0.00 91 1019.6
20200225090048 52 46 0.0 0.0 0.00 0.00 0.00 91 1019.6
20200225085531 52 46 0.0 0.0 0.00 0.00 0.00 91 1019.6
20200225085035 52 45 0.0 0.0 0.00 0.00 0.00 91 1019.7
20200225084521 52 46 0.0 0.0 0.00 0.00 0.00 91 1019.7
20200225084028 52 46 0.0 0.0 0.00 0.00 0.00 91 1019.6
20200225083531 52 46 0.0 0.0 0.00 0.00 0.00 91 1019.7
20200225083033 52 46 0.0 0.0 0.00 0.00 0.00 91 1019.5
20200225082535 53 46 0.0 0.0 0.00 0.00 0.00 91 1019.4
20200225082021 53 46 0.0 0.0 0.00 0.00 0.00 91 1019.5
20200225081527 52 46 0.0 0.0 0.00 0.00 0.00 91 1019.5
20200225081036 52 46 0.0 0.0 0.00 0.00 0.00 91 1019.6
20200225080521 52 46 0.0 0.0 0.00 0.00 0.00 91 1019.5
20200225080045 53 46 0.0 0.0 0.00 0.00 0.00 91 1019.6
20200225075522 53 46 0.0 0.0 0.00 0.00 0.00 91 1019.7
20200225075028 53 46 0.0 0.0 0.00 0.00 0.00 91 1019.6
20200225074527 53 46 0.0 0.0 0.00 0.00 0.00 91 1019.6
20200225074020 53 46 0.0 0.0 0.00 0.00 0.00 91 1019.6
20200225073528 53 46 0.0 0.0 0.00 0.00 0.00 91 1019.7
20200225073033 53 46 0.0 0.0 0.00 0.00 0.00 91 1019.7
20200225072535 53 46 0.0 0.0 0.00 0.00 0.00 91 1019.5
20200225072038 53 46 0.0 0.0 0.00 0.00 0.00 91 1019.6
20200225071521 54 46 0.0 0.0 0.00 0.00 0.00 90 1019.5
20200225071024 54 46 0.0 2.0 0.00 0.00 0.00 91 1019.5
20200225070529 54 46 1.0 2.0 0.00 0.00 0.00 91 1019.6
20200225070100 54 46 0.0 1.0 0.00 0.00 0.00 91 1019.4
20200225065519 54 46 0.0 0.0 0.00 0.00 0.00 90 1019.4
20200225065025 54 46 0.0 1.0 0.00 0.00 0.00 90 1019.6
20200225064537 54 46 0.0 1.0 0.00 0.00 0.00 90 1019.6
20200225064019 55 46 0.0 1.0 0.00 0.00 0.00 90 1019.7
20200225063524 55 46 0.0 0.0 0.00 0.00 0.00 90 1019.7
20200225063035 55 46 0.0 0.0 0.00 0.00 0.00 90 1019.7
20200225062521 55 46 0.0 1.0 0.00 0.00 0.00 90 1019.6
20200225062025 55 45 0.0 1.0 0.00 0.00 0.00 90 1019.6
20200225061524 55 46 0.0 0.0 0.00 0.00 0.00 90 1019.6
20200225061027 55 46 0.0 0.0 0.00 0.00 0.00 90 1019.6
20200225060532 55 46 0.0 2.0 0.00 0.00 0.00 90 1019.6
20200225060100 55 46 0.0 2.0 0.00 0.00 0.00 90 1019.7
20200225055518 55 46 0.0 0.0 0.00 0.00 0.00 90 1019.6
20200225055026 55 46 0.0 0.0 0.00 0.00 0.00 89 1019.6
20200225054530 56 46 0.0 0.0 0.00 0.00 0.00 90 1019.6
20200225054020 56 46 0.0 0.0 0.00 0.00 0.00 89 1019.5
20200225053529 56 46 0.0 0.0 0.00 0.00 0.00 89 1019.4
20200225053035 56 46 0.0 0.0 0.00 0.00 0.00 89 1019.4
20200225052520 56 46 0.0 2.0 0.00 0.00 0.00 89 1019.5
20200225052027 56 46 1.0 2.0 0.00 0.00 0.00 88 1019.6
20200225051038 57 46 0.0 0.0 0.00 0.00 0.00 88 1019.4
20200225050520 57 46 0.0 0.0 0.00 0.00 0.00 88 1019.5
20200225050046 57 45 0.0 0.0 0.00 0.00 0.00 88 1019.3
20200225045535 58 45 0.0 1.0 0.00 0.00 0.00 88 1019.3
20200225045021 58 46 0.0 1.0 0.00 0.00 0.00 88 1019.4
20200225044523 58 46 0.0 2.0 0.00 0.00 0.00 88 1019.4
20200225044029 58 46 1.0 3.0 0.00 0.00 0.00 88 1019.4
20200225043517 58 46 2.0 3.0 0.00 0.00 0.00 87 1019.3
20200225043030 59 280 0.0 2.0 0.00 0.00 0.00 87 1019.2
20200225042535 59 280 0.0 2.0 0.00 0.00 0.00 87 1019.1
20200225042038 59 280 1.0 3.0 0.00 0.00 0.00 87 1019.0
20200225041521 59 280 1.0 4.0 0.00 0.00 0.00 87 1019.1
20200225041029 59 277 2.0 4.0 0.00 0.00 0.00 87 1018.9
20200225040528 59 287 3.0 4.0 0.00 0.00 0.00 87 1019.0
20200225040053 59 281 2.0 4.0 0.00 0.00 0.00 87 1019.1
20200225035534 59 299 1.0 3.0 0.00 0.00 0.00 86 1019.2
20200225035020 60 294 1.0 4.0 0.00 0.00 0.00 86 1019.2
20200225034528 60 295 2.0 4.0 0.00 0.00 0.00 86 1019.1
20200225034037 60 282 3.0 5.0 0.00 0.00 0.00 86 1019.1
20200225033522 60 290 4.0 6.0 0.00 0.00 0.00 86 1019.0
20200225033028 60 277 3.0 6.0 0.00 0.00 0.00 86 1019.2
20200225032535 60 271 3.0 5.0 0.00 0.00 0.00 85 1019.1
20200225032017 60 306 3.0 5.0 0.00 0.00 0.00 85 1019.2
20200225031519 60 292 1.0 5.0 0.00 0.00 0.00 85 1019.2
20200225031023 60 292 2.0 5.0 0.00 0.00 0.00 84 1019.2
20200225030525 60 311 4.0 5.0 0.00 0.00 0.00 84 1019.1
20200225030048 61 275 3.0 4.0 0.00 0.00 0.00 84 1019.1
20200225025527 61 287 1.0 5.0 0.00 0.00 0.00 83 1019.1
20200225025018 61 298 3.0 5.0 0.00 0.00 0.00 83 1019.1
20200225024521 61 277 2.0 5.0 0.00 0.00 0.00 83 1019.0
20200225024022 61 294 2.0 4.0 0.00 0.00 0.00 82 1019.0
20200225023528 61 289 2.0 5.0 0.00 0.00 0.00 82 1018.9
20200225023032 61 290 2.0 5.0 0.00 0.00 0.00 81 1018.8
20200225022538 61 287 2.0 2.0 0.00 0.00 0.00 81 1018.7
20200225022021 62 288 2.0 4.0 0.00 0.00 0.00 80 1018.8
20200225021531 62 293 2.0 4.0 0.00 0.00 0.00 80 1018.8
20200225021036 62 288 2.0 7.0 0.00 0.00 0.00 79 1018.8
20200225020517 62 286 3.0 7.0 0.00 0.00 0.00 79 1018.8
20200225020047 62 273 2.0 6.0 0.00 0.00 0.00 78 1018.7
20200225015523 63 293 3.0 6.0 0.00 0.00 0.00 77 1018.7
20200225015026 63 283 2.0 6.0 0.00 0.00 0.00 76 1018.7